Auburn, CA

3:44 AM PDT on August 24, 2016 (GMT -0700)
Auburn Municipal

Weather History for KAUN - October, 2010

Change the Weather History Date:

Wednesday, October 27, 2010

  Actual Average Record
Temperature  
Mean Temperature 58 °F -  
Max Temperature 64 °F 70 °F 87 °F (1965)
Min Temperature 53 °F 48 °F 35 °F (2004)
Degree Days  
Heating Degree Days 6    
Growing Degree Days 8 (Base 50)    
Moisture  
Dew Point 39 °F    
Average Humidity 50    
Maximum Humidity 67    
Minimum Humidity 32    
Precipitation  
Precipitation 0.00 in - - ()
Sea Level Pressure  
Sea Level Pressure 30.09 in    
Wind  
Wind Speed 4 mph (SE)    
Max Wind Speed 14 mph    
Max Gust Speed -    
Visibility 10 miles    
Events      
Averages and records for this station are not official NWS values.
T = Trace of Precipitation, MM = Missing Value Source: NWS Daily Summary

Daily Weather History Graph

Daily Weather History Graph

Search for Another Location

Airport or City:

Trip Planner

Search our weather history database for the weather conditions in past years. The results will help you decide how hot, cold, wet, or windy it might be!

Date:

Astronomy

Oct. 27, 2010 Rise Set
Actual Time 7:26 AM PDT 6:09 PM PDT
Civil Twilight 6:58 AM PDT 6:36 PM PDT
Nautical Twilight 6:27 AM PDT 7:08 PM PDT
Astronomical Twilight 5:56 AM PDT 7:39 PM PDT
Moon 9:40 PM PDT (10/27) 12:02 PM PDT (10/27)
Length of Visible Light 11h 37m
Length of Day
10h 43m
Waning Gibbous, 78% of the Moon is Illuminated
Oct 27
Waning Gibbous
Oct 30
Last Quarter
Nov 5
New
Nov 13
First Quarter
Nov 21
Full

Hourly Weather History & Observations

Time (PDT) Temp. Dew Point Humidity Pressure Visibility Wind Dir Wind Speed Gust Speed Precip Events Conditions
9:50 AM 53.6 °F 30.2 °F 41% 30.14 in 10.0 mi East 6.9 mph - N/A   Clear
10:10 AM 55.4 °F 30.2 °F 38% 30.14 in 10.0 mi East 6.9 mph - N/A   Clear
10:30 AM 57.2 °F 32.0 °F 38% 30.13 in 10.0 mi ESE 6.9 mph - N/A   Clear
10:50 AM 57.2 °F 33.8 °F 41% 30.12 in 10.0 mi SE 4.6 mph - N/A   Clear
11:10 AM 59.0 °F 33.8 °F 39% 30.12 in 10.0 mi ESE 6.9 mph - N/A   Clear
11:50 AM 62.6 °F 37.4 °F 39% 30.10 in 10.0 mi ESE 5.8 mph - N/A   Clear
12:10 PM 62.6 °F 35.6 °F 37% 30.09 in 10.0 mi Calm Calm - N/A   Clear
12:30 PM 62.6 °F 35.6 °F 37% 30.08 in 10.0 mi Calm Calm - N/A   Clear
12:50 PM 64.4 °F 33.8 °F 32% 30.08 in 10.0 mi Calm Calm - N/A   Clear
1:10 PM 64.4 °F 33.8 °F 32% 30.07 in 10.0 mi SW 4.6 mph - N/A   Clear
1:30 PM 64.4 °F 33.8 °F 32% 30.07 in 10.0 mi Calm Calm - N/A   Clear
1:50 PM 64.4 °F 37.4 °F 37% 30.06 in 10.0 mi West 5.8 mph - N/A   Clear
2:10 PM 64.4 °F 37.4 °F 37% 30.06 in 10.0 mi WSW 4.6 mph - N/A   Clear
2:30 PM 62.6 °F 39.2 °F 42% 30.07 in 10.0 mi WSW 8.1 mph - N/A   Clear
2:50 PM 60.8 °F 39.2 °F 45% 30.07 in 10.0 mi West 6.9 mph - N/A   Clear
3:30 PM 59.0 °F 39.2 °F 48% 30.08 in 10.0 mi WNW 3.5 mph - N/A   Partly Cloudy
3:50 PM 57.2 °F 39.2 °F 51% 30.09 in 10.0 mi Calm Calm - N/A   Partly Cloudy
4:10 PM 57.2 °F 39.2 °F 51% 30.08 in 10.0 mi Calm Calm - N/A   Clear
4:30 PM 57.2 °F 39.2 °F 51% 30.08 in 10.0 mi Calm Calm - N/A   Clear
4:50 PM 57.2 °F 41.0 °F 55% 30.08 in 10.0 mi Calm Calm - N/A   Clear
5:10 PM 57.2 °F 41.0 °F 55% 30.07 in 10.0 mi Calm Calm - N/A   Clear
5:30 PM 57.2 °F 42.8 °F 59% 30.06 in 10.0 mi Calm Calm - N/A   Clear
5:50 PM 57.2 °F 42.8 °F 59% 30.06 in 10.0 mi Calm Calm - N/A   Clear
6:10 PM 57.2 °F 42.8 °F 59% 30.07 in 10.0 mi Calm Calm - N/A   Clear
6:30 PM 57.2 °F 42.8 °F 59% 30.07 in 10.0 mi Calm Calm - N/A   Scattered Clouds
6:50 PM 57.2 °F 41.0 °F 55% 30.08 in 10.0 mi South 3.5 mph - N/A   Partly Cloudy
7:10 PM 57.2 °F 41.0 °F 55% 30.08 in 10.0 mi Calm Calm - N/A   Clear
7:30 PM 57.2 °F 41.0 °F 55% 30.10 in 10.0 mi Calm Calm - N/A   Partly Cloudy
7:50 PM 57.2 °F 42.8 °F 59% 30.09 in 10.0 mi Calm Calm - N/A   Scattered Clouds
8:10 PM 57.2 °F 42.8 °F 59% 30.11 in 10.0 mi Calm Calm - N/A   Mostly Cloudy
8:30 PM 57.2 °F 42.8 °F 59% 30.12 in 10.0 mi Calm Calm - N/A   Overcast
8:50 PM 57.2 °F 42.8 °F 59% 30.13 in 10.0 mi Calm Calm - N/A   Mostly Cloudy
9:10 PM 55.4 °F 44.6 °F 67% 30.13 in 10.0 mi Calm Calm - N/A   Overcast
9:30 PM 55.4 °F 44.6 °F 67% 30.12 in 10.0 mi Calm Calm - N/A   Mostly Cloudy
9:50 PM 55.4 °F 42.8 °F 63% 30.11 in 10.0 mi East 6.9 mph - N/A   Mostly Cloudy
10:10 PM 55.4 °F 42.8 °F 63% 30.10 in 10.0 mi East 6.9 mph - N/A   Mostly Cloudy
10:30 PM 55.4 °F 42.8 °F 63% 30.10 in 10.0 mi East 9.2 mph - N/A   Mostly Cloudy
10:50 PM 57.2 °F 42.8 °F 59% 30.10 in 10.0 mi East 9.2 mph - N/A   Mostly Cloudy
11:10 PM 57.2 °F 42.8 °F 59% 30.09 in 10.0 mi East 13.8 mph - N/A   Mostly Cloudy
11:50 PM 57.2 °F 42.8 °F 59% 30.09 in 10.0 mi ESE 8.1 mph - N/A   Mostly Cloudy